SV2BBO-2 Thessaloniki GR current weather conditions

sailwx.info

Wind from 095 at 4 knots gusting 4

Air temperature 10.6° C
Dewpoint -2.8° C

Last reported at 2017-Mar-27 05:48 UTC.
Time now 2017-Mar-27 06:27 UTC

Location: N 40°38' E 022°57'.
View on Google Maps.

See reports from other nearby stations

  
Tides and Currents Weather Stations Pressure Air Temp Water Temp Dewpoint Dewpoint Depression Visibility Wind Speed Wind Dir Waves Ship Positions
date/time (UTC)wind fromknots sea level pressurealtimeterstation pressurevisibilityair tempwater tempwave heightnotes
2017-Mar-27 05:48 095 4 gusting 4 10.6
2017-Mar-27 05:38 110 4 gusting 5 10.6
2017-Mar-27 05:28 082 5 gusting 6 10.6
2017-Mar-27 05:18 031 5 gusting 5 10.6
2017-Mar-27 05:08 341 6 gusting 6 10.6
2017-Mar-27 04:58 354 4 gusting 5 10.6
2017-Mar-27 04:48 007 3 gusting 5 10.6
2017-Mar-27 04:38 357 10.6
2017-Mar-27 04:28 321 3 gusting 3 10.6
2017-Mar-27 04:18 272 2 gusting 2 10.0
2017-Mar-27 04:08 022 5 gusting 7 10.0
2017-Mar-27 03:58 067 2 gusting 2 10.0
2017-Mar-27 03:48 356 3 gusting 3 10.6
2017-Mar-27 03:38 008 6 gusting 7 10.0
2017-Mar-27 03:28 031 5 gusting 7 10.0
2017-Mar-27 03:18 043 5 gusting 9 10.0
2017-Mar-27 03:08 001 4 gusting 5 10.0
2017-Mar-27 02:58 001 5 gusting 7 10.0
2017-Mar-27 02:48 340 6 gusting 10 10.0
2017-Mar-27 02:38 012 7 gusting 10 10.0
2017-Mar-27 02:28 346 7 gusting 10 10.0
2017-Mar-27 02:18 351 8 gusting 12 10.0
2017-Mar-27 02:08 356 6 gusting 7 10.6
2017-Mar-27 01:58 009 6 gusting 11 10.6
2017-Mar-27 01:48 003 10 gusting 14 10.6
2017-Mar-27 01:38 006 8 gusting 11 10.6
2017-Mar-27 01:28 348 7 gusting 12 10.6
2017-Mar-27 01:18 352 6 gusting 8 11.1
2017-Mar-27 01:08 008 10 gusting 11 11.1
2017-Mar-27 00:58 006 8 gusting 9 11.7
2017-Mar-27 00:48 339 10 gusting 11 11.7
2017-Mar-27 00:38 331 12 gusting 12 11.1
2017-Mar-27 00:28 353 9 gusting 13 11.1
2017-Mar-27 00:18 012 12 gusting 13 11.1
2017-Mar-27 00:08 330 7 gusting 11 11.7
2017-Mar-26 23:58 002 10 gusting 12 11.7
2017-Mar-26 23:48 350 10 gusting 13 11.7
2017-Mar-26 23:38 005 12 gusting 14 11.7
2017-Mar-26 23:28 350 9 gusting 13 12.2
2017-Mar-26 23:18 002 7 gusting 8 12.2
2017-Mar-26 23:08 312 8 gusting 12 12.2
2017-Mar-26 22:58 12.2
2017-Mar-26 22:48 333 7 gusting 6 12.2
2017-Mar-26 22:38 327 10 gusting 10 12.2
2017-Mar-26 22:28 006 9 gusting 13 12.2
2017-Mar-26 22:18 011 11 gusting 13 11.7
2017-Mar-26 22:08 002 11 gusting 14 12.2
2017-Mar-26 21:58 352 11 gusting 16 12.2
2017-Mar-26 21:48 349 10 gusting 13 12.2
2017-Mar-26 21:38 345 12 gusting 13 12.2
2017-Mar-26 21:28 12.2
2017-Mar-26 21:18 12.2
2017-Mar-26 21:08 012 12 gusting 19 12.2
2017-Mar-26 20:58 009 12 gusting 13 12.8
2017-Mar-26 20:48 12.8
2017-Mar-26 20:38 002 13 gusting 16 12.8
2017-Mar-26 20:28 012 10 gusting 16 12.8
2017-Mar-26 20:18 355 14 gusting 20 12.8
2017-Mar-26 20:08 011 11 gusting 18 13.3
2017-Mar-26 19:58 355 13 gusting 13 13.3
2017-Mar-26 19:48 359 15 gusting 19 13.3
2017-Mar-26 19:38 003 13 gusting 19 13.9
2017-Mar-26 19:28 337 13 gusting 13 13.9
2017-Mar-26 19:18 011 13 gusting 19 13.9
2017-Mar-26 19:08 013 13 gusting 15 15.0
2017-Mar-26 18:58 328 13 gusting 19 15.0
2017-Mar-26 18:48 344 13 gusting 15 15.6
2017-Mar-26 18:38 356 14 gusting 19 15.6
2017-Mar-26 18:28 352 12 gusting 16 16.1
2017-Mar-26 18:18 015 11 gusting 13 16.1
2017-Mar-26 18:08 006 13 gusting 14 16.7
2017-Mar-26 17:58 356 12 gusting 10 16.7
2017-Mar-26 17:48 17.2
2017-Mar-26 17:38 348 10 gusting 17 17.2
2017-Mar-26 17:28 326 9 gusting 11 17.8
2017-Mar-26 17:18 357 7 gusting 10 18.3
2017-Mar-26 17:08 358 10 gusting 10 18.3
2017-Mar-26 16:58 359 7 gusting 11 18.3
2017-Mar-26 16:48 346 6 gusting 13 18.9
2017-Mar-26 16:38 016 6 gusting 6 18.9
2017-Mar-26 16:28 342 5 gusting 5 18.9
2017-Mar-26 16:18 332 5 gusting 7 18.9
2017-Mar-26 16:08 331 7 gusting 8 18.9
2017-Mar-26 15:58 236 18.9
2017-Mar-26 15:48 310 2 gusting 3 18.9
2017-Mar-26 15:38 286 5 gusting 6 18.9
2017-Mar-26 15:28 269 3 gusting 5 19.4
2017-Mar-26 15:18 228 5 gusting 5 20.0
2017-Mar-26 15:08 215 3 gusting 5 20.6
2017-Mar-26 14:58 228 5 gusting 5 20.6
2017-Mar-26 14:48 202 2 gusting 4 20.6
2017-Mar-26 14:38 235 3 gusting 3 20.6
2017-Mar-26 14:28 249 2 gusting 4 20.6
2017-Mar-26 14:18 223 2 gusting 6 20.6
2017-Mar-26 14:08 163 4 gusting 5 20.6
2017-Mar-26 13:58 199 4 gusting 6 20.6
2017-Mar-26 13:48 237 4 gusting 6 20.0
2017-Mar-26 13:38 241 3 gusting 3 20.0
2017-Mar-26 13:28 243 4 gusting 4 21.1
2017-Mar-26 13:18 220 6 gusting 6 21.1
2017-Mar-26 13:08 228 20.6
2017-Mar-26 12:58 219 5 gusting 6 20.6
2017-Mar-26 12:48 242 3 gusting 3 20.6
2017-Mar-26 12:38 227 2 gusting 4 20.6
2017-Mar-26 12:28 205 5 gusting 5 20.6
2017-Mar-26 12:18 225 4 gusting 4 20.6
2017-Mar-26 12:08 152 2 gusting 3 20.0
2017-Mar-26 11:58 236 5 gusting 5 20.0
2017-Mar-26 11:48 220 3 gusting 5 20.0
2017-Mar-26 11:38 217 4 gusting 5 20.0
2017-Mar-26 11:28 213 4 gusting 5 20.0
2017-Mar-26 11:18 203 3 gusting 4 20.0
2017-Mar-26 11:08 218 4 gusting 5 20.0
2017-Mar-26 10:58 234 5 gusting 5 20.0
2017-Mar-26 10:48 212 2 gusting 6 20.0
2017-Mar-26 10:38 219 3 gusting 4 20.6
2017-Mar-26 10:28 211 3 gusting 3 20.0
2017-Mar-26 10:18 216 3 gusting 4 20.0
2017-Mar-26 10:08 189 3 gusting 4 20.0
2017-Mar-26 09:58 204 3 gusting 3 20.0
2017-Mar-26 09:48 313 2 gusting 3 20.0
2017-Mar-26 09:38 202 3 gusting 4 20.0
2017-Mar-26 09:28 186 2 gusting 3 20.0
2017-Mar-26 09:18 217 3 gusting 3 20.0
2017-Mar-26 09:08 182 2 gusting 3 20.0
2017-Mar-26 08:58 230 2 gusting 2 19.4
2017-Mar-26 08:48 192 2 gusting 3 19.4
2017-Mar-26 08:38 207 2 gusting 3 19.4
2017-Mar-26 08:28 187 3 gusting 4 19.4
2017-Mar-26 08:18 243 2 gusting 4 19.4
2017-Mar-26 08:08 194 3 gusting 4 19.4
2017-Mar-26 07:58 234 2 gusting 3 18.9
2017-Mar-26 07:48 198 2 gusting 3 19.4
2017-Mar-26 07:38 225 2 gusting 3 20.0
2017-Mar-26 07:28 213 2 gusting 2 20.0
2017-Mar-26 07:18 195 19.4
2017-Mar-26 07:08 216 19.4
2017-Mar-26 06:58 188 3 gusting 3 18.9
2017-Mar-26 06:48 187 2 gusting 3 18.9
2017-Mar-26 06:38 179 2 gusting 3 18.3
2017-Mar-26 06:28 194 2 gusting 3 18.9
2017-Mar-26 06:18 076 18.9
2017-Mar-26 06:08 076 1 gusting 2 18.3
2017-Mar-26 05:58 076 17.8
2017-Mar-26 05:48 076 16.7
2017-Mar-26 05:38 086 1 gusting 3 16.1
2017-Mar-26 05:28 070 1 gusting 2 16.7
2017-Mar-26 05:18 070 15.6
2017-Mar-26 05:08 069 1 gusting 3 15.0
2017-Mar-26 04:58 034 2 gusting 3 15.0
2017-Mar-26 04:48 281 15.0
2017-Mar-26 04:38 282 15.0
2017-Mar-26 04:28 282 15.0
2017-Mar-26 04:18 279 15.0
2017-Mar-26 04:08 279 15.0
2017-Mar-26 03:58 276 15.0
2017-Mar-26 03:48 276 15.6
2017-Mar-26 03:38 276 15.6
2017-Mar-26 03:28 276 2 gusting 3 16.1
2017-Mar-26 03:18 072 15.6
2017-Mar-26 03:08 072 15.6
2017-Mar-26 02:58 115 15.6
2017-Mar-26 02:48 115 15.6
2017-Mar-26 02:38 115 15.6
2017-Mar-26 02:28 118 15.6
2017-Mar-26 02:18 120 15.6
2017-Mar-26 02:08 120 16.1
2017-Mar-26 01:58 120 16.7
2017-Mar-26 01:48 120 16.1
2017-Mar-26 01:38 120 16.1
2017-Mar-26 01:28 196 16.7
2017-Mar-26 01:18 144 1 gusting 3 16.1
2017-Mar-26 01:08 121 16.1
2017-Mar-26 00:58 120 16.1
2017-Mar-26 00:48 120 16.7
2017-Mar-26 00:38 120 16.7
2017-Mar-26 00:28 126 17.2
2017-Mar-26 00:18 127 16.7
2017-Mar-26 00:08 229 17.2
2017-Mar-25 23:58 229 2 gusting 2 17.8
2017-Mar-25 23:48 214 2 gusting 3 17.8
2017-Mar-25 23:38 140 17.8
2017-Mar-25 23:28 140 17.8
2017-Mar-25 23:18 140 2 gusting 3 18.3
2017-Mar-25 23:08 141 2 gusting 3 18.3
2017-Mar-25 22:58 034 18.3
2017-Mar-25 22:48 034 18.3
2017-Mar-25 22:38 034 18.3
2017-Mar-25 22:28 034 18.9
2017-Mar-25 22:18 034 18.9
2017-Mar-25 22:08 034 18.9
2017-Mar-25 21:58 034 18.9
2017-Mar-25 21:48 034 18.9
2017-Mar-25 21:38 034 18.9
2017-Mar-25 21:28 034 18.9
2017-Mar-25 21:18 034 1 gusting 2 19.4
2017-Mar-25 21:08 027 19.4
2017-Mar-25 20:58 313 2 gusting 3 19.4
2017-Mar-25 20:48 311 19.4
2017-Mar-25 20:38 335 2 gusting 3 19.4
2017-Mar-25 20:28 011 4 gusting 4 19.4
2017-Mar-25 20:18 268 2 gusting 2 19.4
2017-Mar-25 20:08 267 19.4
2017-Mar-25 19:58 254 3 gusting 4 20.0
2017-Mar-25 19:48 156 4 gusting 5 20.0
2017-Mar-25 19:38 099 4 gusting 6 20.6
2017-Mar-25 19:28 045 3 gusting 5 20.0
2017-Mar-25 19:18 155 5 gusting 6 20.0
2017-Mar-25 19:08 140 2 gusting 4 20.0
2017-Mar-25 18:58 097 2 gusting 3 20.0
2017-Mar-25 18:48 343 2 gusting 2 19.4
2017-Mar-25 18:38 294 4 gusting 4 19.4
2017-Mar-25 18:28 085 2 20.0
2017-Mar-25 18:18 135 2 gusting 3 20.0
2017-Mar-25 18:08 132 3 gusting 4 20.0
2017-Mar-25 17:58 092 2 gusting 3 20.0
2017-Mar-25 17:48 069 3 gusting 3 19.4
2017-Mar-25 17:38 156 2 gusting 3 19.4
2017-Mar-25 17:28 225 3 gusting 3 19.4
2017-Mar-25 17:18 223 2 gusting 3 20.0
2017-Mar-25 17:08 121 0 gusting 3 20.0
2017-Mar-25 16:58 291 5 gusting 5 19.4
2017-Mar-25 16:48 314 6 gusting 6 19.4
2017-Mar-25 16:38 223 3 gusting 5 19.4
2017-Mar-25 16:28 274 19.4
2017-Mar-25 16:18 176 20.0
2017-Mar-25 16:08 248 2 gusting 3 20.6
2017-Mar-25 15:58 194 3 gusting 3 21.1
2017-Mar-25 15:48 248 21.1
2017-Mar-25 15:38 208 2 gusting 4 21.1
2017-Mar-25 15:28 226 3 gusting 5 21.1
2017-Mar-25 15:18 199 5 gusting 6 21.7
2017-Mar-25 15:08 210 4 gusting 3 21.7
2017-Mar-25 14:58 219 4 gusting 4 21.7
2017-Mar-25 14:48 208 4 gusting 3 22.2
2017-Mar-25 14:38 215 5 gusting 6 22.2
2017-Mar-25 14:28 191 5 gusting 8 22.2
2017-Mar-25 14:18 192 4 gusting 6 22.2
2017-Mar-25 14:08 195 4 gusting 5 22.2
2017-Mar-25 13:58 207 3 gusting 6 22.2
2017-Mar-25 13:48 216 4 gusting 4 22.2
2017-Mar-25 13:38 192 3 gusting 3 22.2
2017-Mar-25 13:28 193 3 gusting 5 22.2
2017-Mar-25 13:18 197 4 gusting 6 21.7
2017-Mar-25 13:08 212 3 gusting 5 21.7
2017-Mar-25 12:58 213 3 gusting 4 21.7
2017-Mar-25 12:48 180 4 gusting 5 21.7
2017-Mar-25 12:38 180 4 gusting 7 21.7
2017-Mar-25 12:28 207 5 gusting 5 21.7
2017-Mar-25 12:18 186 4 gusting 6 21.1
2017-Mar-25 12:08 188 4 gusting 5 21.7
2017-Mar-25 11:58 226 2 gusting 5 21.1
2017-Mar-25 11:48 190 3 gusting 4 21.1
2017-Mar-25 11:38 188 2 gusting 3 20.6
2017-Mar-25 11:28 195 3 gusting 5 20.6
2017-Mar-25 11:18 195 3 gusting 3 20.6
2017-Mar-25 11:08 170 3 gusting 3 21.1
2017-Mar-25 10:58 214 3 gusting 4 21.1
2017-Mar-25 10:48 209 2 gusting 3 21.1
2017-Mar-25 10:38 237 3 gusting 4 20.6
2017-Mar-25 10:28 185 2 gusting 3 20.0
2017-Mar-25 10:18 192 2 gusting 3 20.0
2017-Mar-25 10:08 226 20.0
2017-Mar-25 09:58 218 5 gusting 5 19.4
2017-Mar-25 09:48 193 0 gusting 4 19.4
2017-Mar-25 09:38 212 5 gusting 5 19.4
2017-Mar-25 09:28 206 3 gusting 4 18.9
2017-Mar-25 09:18 201 2 gusting 3 18.9
2017-Mar-25 09:08 190 3 gusting 5 19.4
2017-Mar-25 08:58 175 3 gusting 4 18.9
2017-Mar-25 08:48 172 18.3
2017-Mar-25 08:38 193 17.8
2017-Mar-25 08:28 192 1 gusting 3 17.8
2017-Mar-25 08:18 210 2 gusting 3 17.8
2017-Mar-25 08:08 234 3 gusting 5 17.8
2017-Mar-25 07:58 211 3 gusting 3 17.8
2017-Mar-25 07:48 195 2 gusting 3 17.2
2017-Mar-25 07:38 217 2 gusting 4 17.2
2017-Mar-25 07:28 203 4 gusting 5 17.2
2017-Mar-25 07:18 226 4 gusting 5 17.2
2017-Mar-25 07:08 287 4 gusting 5 17.2
2017-Mar-25 06:58 193 3 gusting 3 17.2
2017-Mar-25 06:48 246 3 gusting 5 17.2
2017-Mar-25 06:38 108 17.8
2017-Mar-25 06:28 108 17.2
2017-Mar-25 06:18 216 1 gusting 2 16.7
2017-Mar-25 06:08 230 2 gusting 3 16.1